Regional Weather Roundup
Issued by NWS

Home | Current Version | Previous Version | Text Only | Print | Product List | Glossary On
Versions: 1 2 3 4 5 6 7 8 9 10 11 12 13 14 15 16 17 18 19 20 21 22 23 24 25 26 27 28 29 30 31 32 33 34 35 36 37 38 39 40 41 42 43 44 45 46 47 48 49 50
000
ASUS46 KPQR 011210
RWROR

OREGON REGIONAL WEATHER ROUNDUP
NATIONAL WEATHER SERVICE PORTLAND OR
500 AM PDT SAT AUG 01 2015

NOTE: "FAIR" INDICATES FEW OR NO CLOUDS BELOW 12,000 FEET WITH
NO SIGNIFICANT WEATHER AND/OR OBSTRUCTIONS TO VISIBILITY.

ORZ001>013-011300-
NORTHWEST OREGON


CITY           SKY/WX    TMP DP  RH WIND       PRES   REMARKS
ASTORIA        CLOUDY    58  57  97 SW3       30.01S
6HR MIN TEMP:  54; 6HR MAX TEMP:  60;

NEWPORT        CLEAR     45  45 100 CALM      30.00S FOG
PORTLAND       CLEAR     65  48  54 NW5       29.97R
6HR MIN TEMP:  65; 6HR MAX TEMP:  80;

VANCOUVER WA   CLEAR     61  45  55 CALM      29.96R
6HR MIN TEMP:  60; 6HR MAX TEMP:  80;

SCAPPOOSE      CLEAR     56  41  57 CALM      29.95S
6HR MIN TEMP:  56; 6HR MAX TEMP:  77;

HILLSBORO      CLEAR     57  43  59 CALM      29.96S
6HR MIN TEMP:  52; 6HR MAX TEMP:  78;

AURORA         CLEAR     61  45  55 N3        29.97R
6HR MIN TEMP:  60; 6HR MAX TEMP:  80;

MCMINNVILLE    CLEAR     56  47  71 CALM      29.97R
6HR MIN TEMP:  54; 6HR MAX TEMP:  76;

SALEM          CLEAR     66  44  45 NW9       29.94S
6HR MIN TEMP:  64; 6HR MAX TEMP:  79;

CORVALLIS      CLEAR     63  45  51 NW7       29.96S
EUGENE         CLEAR     61  48  62 W3        29.95R
6HR MIN TEMP:  58; 6HR MAX TEMP:  77;

$$

ORZ021-028-011300-
SOUTHWEST OREGON


CITY           SKY/WX    TMP DP  RH WIND       PRES   REMARKS
NORTH BEND     CLOUDY    52  52 100 CALM      29.96S VSB 1/4
6HR MIN TEMP:  52; 6HR MAX TEMP:  55;

BROOKINGS      CLOUDY    59  59 100 CALM      29.96S
ROSEBURG       PTCLDY    71  46  40 CALM      29.92S
6HR MIN TEMP:  70; 6HR MAX TEMP:  84;

SEXTON SUMMIT  PTCLDY    75  34  22 N8        30.08S HAZE
6HR MIN TEMP:  73; 6HR MAX TEMP:  78;

MEDFORD        MOCLDY    73  51  46 E3        29.92S SMOKE
6HR MIN TEMP:  73; 6HR MAX TEMP:  92;

$$

ORZ014>016-041-011300-
COLUMBIA GORGE


CITY           SKY/WX    TMP DP  RH WIND       PRES   REMARKS
TROUTDALE      CLEAR     58  51  78 CALM      29.95S
6HR MIN TEMP:  58; 6HR MAX TEMP:  78;

THE DALLES     CLEAR     67  47  48 VRB3      29.89R
6HR MIN TEMP:  66; 6HR MAX TEMP:  89;

$$

ORZ029>031-041-044-049-050-061>064-502-503-505>511-011300-
EASTERN OREGON


CITY           SKY/WX    TMP DP  RH WIND       PRES   REMARKS
REDMOND        CLEAR     59  37  44 S8        30.06S
6HR MIN TEMP:  57; 6HR MAX TEMP:  76;

BEND           CLEAR     61  39  44 SW6       30.09S
PRINEVILLE     CLEAR     54  25  32 CALM      30.07S
KLAMATH FALLS  PTCLDY    62  50  64 NW5       30.11S
6HR MIN TEMP:  57; 6HR MAX TEMP:  76;

LAKEVIEW       PTCLDY    59  37  44 NW9       30.14S
HERMISTON      CLEAR     63  44  50 SE5       29.88R
6HR MIN TEMP:  61; 6HR MAX TEMP:  82;

PENDLETON      NOT AVBL
JOHN DAY       CLEAR     67  36  32 SE10      30.09S
MEACHAM        CLEAR     47  38  71 CALM      30.09F
6HR MIN TEMP:  47; 6HR MAX TEMP:  61;

LA GRANDE      CLEAR     57  34  41 CALM      30.03S
6HR MIN TEMP:  55; 6HR MAX TEMP:  75;

BAKER CITY     CLEAR     52  46  80 CALM      30.06S
6HR MIN TEMP:  49; 6HR MAX TEMP:  66;

BURNS          CLEAR     57  32  38 W8        30.10S
6HR MIN TEMP:  57; 6HR MAX TEMP:  74;

ROME             N/A     65  22  19 CALM      30.08S
6HR MIN TEMP:  63; 6HR MAX TEMP:  85;

ONTARIO        CLEAR     60  47  61 CALM      29.98R
6HR MIN TEMP:  59; 6HR MAX TEMP:  70;

$$


USA.gov is the U.S. government's official web portal to all federal, state and local government web resources and services.